San Antonio, TX

3:18 PM CDT on May 28, 2017 (GMT -0500)
San Antonio International

Weather History for KSAT - January, 2014

Change the Weather History Date:

Thursday, January 30, 2014

  Actual Average Record
Temperature  
Mean Temperature 51 °F 53 °F  
Max Temperature 68 °F 64 °F 89 °F (1971)
Min Temperature 34 °F 42 °F 5 °F (1949)
Degree Days  
Heating Degree Days 14 12  
Month to date heating degree days 428 406  
Since 1 July heating degree days 1068 1008  
Cooling Degree Days 0 0  
Month to date cooling degree days 1 0  
Year to date cooling degree days 1 0  
Growing Degree Days 4 (Base 50)    
Moisture  
Dew Point 38 °F    
Average Humidity 64    
Maximum Humidity 83    
Minimum Humidity 45    
Precipitation  
Precipitation 0.00 in 0.06 in 2.54 in (1964)
Month to date precipitation 0.23 1.70  
Year to date precipitation 0.23 1.70  
Snow  
Snow 0.00 in - - ()
Month to date snowfall 0.1  
Since 1 July snowfall 0.1  
Snow Depth 0.00 in    
Sea Level Pressure  
Sea Level Pressure 30.03 in    
Wind  
Wind Speed 8 mph (South)    
Max Wind Speed 20 mph    
Max Gust Speed 25 mph    
Visibility 10 miles    
Events      
T = Trace of Precipitation, MM = Missing Value Source: NWS Daily Summary

Daily Weather History Graph

Daily Weather History Graph

Search for Another Location

Airport or City:

Trip Planner

Search our weather history database for the weather conditions in past years. The results will help you decide how hot, cold, wet, or windy it might be!

Date:

Astronomy

Jan. 30, 2014 Rise Set
Actual Time 7:24 AM CST 6:10 PM CST
Civil Twilight 6:59 AM CST 6:35 PM CST
Nautical Twilight 6:30 AM CST 7:03 PM CST
Astronomical Twilight 6:02 AM CST 7:32 PM CST
Moon 6:54 AM CST (1/30) 6:18 PM CST (1/30)
Length of Visible Light 11h 35m
Length of Day
10h 45m
Waning Crescent, 0% of the Moon is Illuminated
Jan 30
Waning Crescent
Jan 30
New
Feb 6
First Quarter
Feb 14
Full
Feb 22
Last Quarter

Hourly Weather History & Observations

Time (CST) Temp. Windchill Dew Point Humidity Pressure Visibility Wind Dir Wind Speed Gust Speed Precip Events Conditions
12:51 AM 35.1 °F 30.1 °F 21.0 °F 57% 30.22 in 10.0 mi South 5.8 mph - N/A   Partly Cloudy
1:51 AM 37.0 °F 32.4 °F 23.0 °F 57% 30.19 in 10.0 mi Variable 5.8 mph - N/A   Overcast
2:41 AM 39.2 °F 34.2 °F 26.6 °F 61% 30.19 in 10.0 mi South 6.9 mph - N/A   Overcast
2:51 AM 39.0 °F 34.0 °F 26.1 °F 60% 30.17 in 10.0 mi South 6.9 mph - N/A   Overcast
3:51 AM 39.0 °F 34.0 °F 28.0 °F 65% 30.15 in 10.0 mi SSW 6.9 mph - N/A   Overcast
4:51 AM 39.9 °F 35.8 °F 28.9 °F 65% 30.14 in 10.0 mi South 5.8 mph - N/A   Overcast
5:51 AM 41.0 °F 38.0 °F 30.0 °F 65% 30.13 in 10.0 mi South 4.6 mph - N/A   Overcast
6:51 AM 41.0 °F 36.4 °F 30.9 °F 67% 30.12 in 10.0 mi SSW 6.9 mph - N/A   Overcast
7:51 AM 42.1 °F 38.4 °F 30.9 °F 65% 30.13 in 10.0 mi SSW 5.8 mph - N/A   Overcast
8:51 AM 44.1 °F 40.8 °F 33.1 °F 65% 30.12 in 10.0 mi South 5.8 mph - N/A   Overcast
9:51 AM 46.9 °F - 35.1 °F 63% 30.11 in 10.0 mi South 6.9 mph - N/A   Overcast
10:51 AM 48.9 °F - 37.0 °F 64% 30.12 in 10.0 mi SSW 9.2 mph - N/A   Overcast
11:51 AM 50.0 °F - 39.0 °F 66% 30.08 in 10.0 mi SSW 6.9 mph - N/A   Overcast
12:51 PM 54.0 °F - 42.1 °F 64% 30.04 in 10.0 mi SSW 11.5 mph - N/A   Overcast
1:51 PM 59.0 °F - 43.0 °F 55% 29.98 in 10.0 mi SSW 13.8 mph 24.2 mph N/A   Scattered Clouds
2:51 PM 64.0 °F - 44.1 °F 48% 29.95 in 10.0 mi South 10.4 mph - N/A   Partly Cloudy
3:51 PM 66.0 °F - 44.1 °F 45% 29.92 in 10.0 mi South 15.0 mph - N/A   Scattered Clouds
4:51 PM 68.0 °F - 46.0 °F 45% 29.90 in 10.0 mi South 16.1 mph 21.9 mph N/A   Scattered Clouds
5:51 PM 66.0 °F - 46.0 °F 48% 29.87 in 10.0 mi South 10.4 mph - N/A   Partly Cloudy
6:51 PM 61.0 °F - 45.0 °F 56% 29.88 in 10.0 mi SSE 5.8 mph - N/A   Partly Cloudy
7:51 PM 61.0 °F - 46.0 °F 58% 29.88 in 10.0 mi South 6.9 mph - N/A   Partly Cloudy
8:51 PM 61.0 °F - 46.9 °F 60% 29.89 in 10.0 mi SSE 12.7 mph - N/A   Partly Cloudy
9:51 PM 57.0 °F - 50.0 °F 77% 29.91 in 10.0 mi South 6.9 mph - N/A   Partly Cloudy
10:51 PM 55.0 °F - 50.0 °F 83% 29.91 in 10.0 mi South 4.6 mph - N/A   Partly Cloudy
11:51 PM 54.0 °F - 50.0 °F 86% 29.91 in 10.0 mi SSE 5.8 mph - N/A   Partly Cloudy